Time,TemperatureF,DewpointF,PressureIn,WindDirection,WindDirectionDegrees,WindSpeedMPH,WindSpeedGustMPH,Humidity,HourlyPrecipIn,Conditions,Clouds,dailyrainin,SoftwareType,DateUTC
2013-01-01 00:00:00,30.8,22.9,29.76,SW,223,3.0,6.0,72,0.00,,OVC120,0.00,VWS V14.00,2013-01-01 05:00:00,
2013-01-01 00:04:00,30.8,22.9,29.76,SW,223,2.0,6.0,72,0.00,,OVC095,0.00,VWS V14.00,2013-01-01 05:04:00,
2013-01-01 00:09:00,30.7,23.1,29.75,SSW,206,4.0,5.0,73,0.00,,OVC095,0.00,VWS V14.00,2013-01-01 05:09:00,
2013-01-01 00:14:00,30.8,22.9,29.75,SSW,206,3.0,6.0,72,0.00,,OVC095,0.00,VWS V14.00,2013-01-01 05:14:00,
2013-01-01 00:19:00,30.8,22.9,29.75,SSW,208,3.0,6.0,72,0.00,,OVC095,0.00,VWS V14.00,2013-01-01 05:19:00,
2013-01-01 00:24:00,30.8,22.9,29.74,SSW,204,2.0,6.0,72,0.00,,OVC095,0.00,VWS V14.00,2013-01-01 05:24:00,
2013-01-01 00:29:00,30.8,22.9,29.74,SSW,210,2.0,6.0,72,0.00,,OVC095,0.00,VWS V14.00,2013-01-01 05:29:00,
2013-01-01 00:34:00,31.1,23.5,29.74,WSW,239,2.0,7.0,73,0.00,,OVC095,0.00,VWS V14.00,2013-01-01 05:34:00,
2013-01-01 00:39:00,31.1,23.1,29.73,WSW,239,2.0,7.0,72,0.00,,OVC095,0.00,VWS V14.00,2013-01-01 05:39:00,
2013-01-01 00:44:00,31.1,23.1,29.74,WSW,240,1.0,7.0,72,0.00,,OVC095,0.00,VWS V14.00,2013-01-01 05:44:00,
2013-01-01 00:49:00,31.0,23.0,29.74,SW,231,1.0,7.0,72,0.00,,OVC095,0.00,VWS V14.00,2013-01-01 05:49:00,
2013-01-01 00:54:00,31.1,23.5,29.73,SW,227,3.0,7.0,73,0.00,,OVC095,0.00,VWS V14.00,2013-01-01 05:54:00,
2013-01-01 00:59:00,31.3,23.3,29.73,SW,228,1.0,7.0,72,0.00,,OVC095,0.00,VWS V14.00,2013-01-01 05:59:00,
2013-01-01 01:04:00,31.3,23.3,29.73,SW,233,3.0,5.0,72,0.00,,OVC085,0.00,VWS V14.00,2013-01-01 06:04:00,
2013-01-01 01:09:00,31.4,23.4,29.73,SW,233,2.0,5.0,72,0.00,,OVC085,0.00,VWS V14.00,2013-01-01 06:09:00,
2013-01-01 01:14:00,31.4,23.4,29.73,SW,232,1.0,8.0,72,0.00,,OVC085,0.00,VWS V14.00,2013-01-01 06:14:00,
2013-01-01 01:19:00,31.4,23.4,29.73,SW,230,2.0,8.0,72,0.00,,OVC085,0.00,VWS V14.00,2013-01-01 06:19:00,
2013-01-01 01:24:00,31.6,23.3,29.73,SW,230,2.0,8.0,71,0.00,,OVC085,0.00,VWS V14.00,2013-01-01 06:24:00,
2013-01-01 01:29:00,31.6,23.3,29.74,SW,232,3.0,8.0,71,0.00,,OVC085,0.00,VWS V14.00,2013-01-01 06:29:00,
2013-01-01 01:34:00,31.6,23.3,29.74,SW,232,3.0,5.0,71,0.00,,OVC085,0.00,VWS V14.00,2013-01-01 06:34:00,
2013-01-01 01:39:00,31.7,23.4,29.74,SW,231,2.0,5.0,71,0.00,,OVC085,0.00,VWS V14.00,2013-01-01 06:39:00,
2013-01-01 01:44:00,31.7,23.4,29.74,SW,231,3.0,5.0,71,0.00,,OVC085,0.00,VWS V14.00,2013-01-01 06:44:00,
2013-01-01 01:49:00,31.7,23.4,29.75,SW,230,2.0,5.0,71,0.00,,OVC085,0.00,VWS V14.00,2013-01-01 06:49:00,
2013-01-01 01:54:00,31.6,23.3,29.74,SW,230,0.0,5.0,71,0.00,,OVC085,0.00,VWS V14.00,2013-01-01 06:54:00,
2013-01-01 01:59:00,31.6,23.3,29.74,SW,230,4.0,5.0,71,0.00,,OVC085,0.00,VWS V14.00,2013-01-01 06:59:00,
2013-01-01 02:04:00,31.7,23.7,29.74,SW,230,1.0,5.0,72,0.00,,OVC041,0.00,VWS V14.00,2013-01-01 07:04:00,
2013-01-01 02:09:00,31.7,23.7,29.74,SW,230,2.0,5.0,72,0.00,,OVC041,0.00,VWS V14.00,2013-01-01 07:09:00,
2013-01-01 02:14:00,31.7,23.7,29.74,SW,229,2.0,5.0,72,0.00,,OVC041,0.00,VWS V14.00,2013-01-01 07:14:00,
2013-01-01 02:19:00,31.9,23.9,29.74,SW,219,3.0,5.0,72,0.00,,OVC041,0.00,VWS V14.00,2013-01-01 07:19:00,
2013-01-01 02:24:00,32.0,23.7,29.73,SW,222,2.0,5.0,71,0.00,,OVC041,0.00,VWS V14.00,2013-01-01 07:24:00,
2013-01-01 02:29:00,32.2,23.9,29.73,SW,222,0.0,5.0,71,0.00,,OVC041,0.00,VWS V14.00,2013-01-01 07:29:00,
2013-01-01 02:34:00,32.2,23.9,29.73,SW,222,3.0,4.0,71,0.00,,OVC041,0.00,VWS V14.00,2013-01-01 07:34:00,
2013-01-01 02:39:00,32.3,24.0,29.73,SW,222,1.0,5.0,71,0.00,,OVC041,0.00,VWS V14.00,2013-01-01 07:39:00,
2013-01-01 02:44:00,32.5,24.2,29.73,SW,221,1.0,5.0,71,0.00,,OVC041,0.00,VWS V14.00,2013-01-01 07:44:00,
2013-01-01 02:49:00,32.4,24.1,29.72,SW,221,3.0,5.0,71,0.00,,OVC041,0.00,VWS V14.00,2013-01-01 07:49:00,
2013-01-01 02:54:00,32.4,24.1,29.72,SW,229,1.0,6.0,71,0.00,,OVC041,0.00,VWS V14.00,2013-01-01 07:54:00,
2013-01-01 02:59:00,32.4,24.1,29.72,SW,229,2.0,6.0,71,0.00,,OVC041,0.00,VWS V14.00,2013-01-01 07:59:00,
2013-01-01 03:04:00,32.4,24.1,29.72,SW,229,1.0,4.0,71,0.00,,OVC049,0.00,VWS V14.00,2013-01-01 08:04:00,
2013-01-01 03:09:00,32.6,24.2,29.72,SW,229,2.0,5.0,71,0.00,,OVC049,0.00,VWS V14.00,2013-01-01 08:09:00,
2013-01-01 03:14:00,32.6,24.2,29.72,SW,229,0.0,5.0,71,0.00,,OVC049,0.00,VWS V14.00,2013-01-01 08:14:00,
2013-01-01 03:19:00,32.6,24.2,29.72,SW,229,1.0,5.0,71,0.00,,OVC049,0.00,VWS V14.00,2013-01-01 08:19:00,
2013-01-01 03:24:00,32.6,24.2,29.72,SW,234,1.0,5.0,71,0.00,,OVC049,0.00,VWS V14.00,2013-01-01 08:24:00,
2013-01-01 03:29:00,32.7,24.4,29.72,SW,234,1.0,5.0,71,0.00,,OVC049,0.00,VWS V14.00,2013-01-01 08:29:00,
2013-01-01 03:34:00,32.7,24.4,29.72,SW,234,2.0,5.0,71,0.00,,OVC049,0.00,VWS V14.00,2013-01-01 08:34:00,
2013-01-01 03:39:00,32.6,24.6,29.72,SW,234,2.0,5.0,72,0.00,,OVC049,0.00,VWS V14.00,2013-01-01 08:39:00,
2013-01-01 03:44:00,32.6,24.6,29.71,SW,235,3.0,5.0,72,0.00,,OVC049,0.00,VWS V14.00,2013-01-01 08:44:00,
2013-01-01 03:49:00,32.6,24.6,29.71,SW,235,3.0,5.0,72,0.00,,OVC049,0.00,VWS V14.00,2013-01-01 08:49:00,
2013-01-01 03:54:00,32.5,24.8,29.71,SW,235,1.0,5.0,73,0.00,,OVC049,0.00,VWS V14.00,2013-01-01 08:54:00,
2013-01-01 03:59:00,32.5,24.5,29.70,SW,235,2.0,5.0,72,0.00,,OVC049,0.00,VWS V14.00,2013-01-01 08:59:00,
2013-01-01 04:04:00,32.4,24.4,29.70,SW,235,2.0,4.0,72,0.00,,OVC060,0.00,VWS V14.00,2013-01-01 09:04:00,
2013-01-01 04:09:00,32.5,24.8,29.70,SW,236,2.0,6.0,73,0.00,,OVC060,0.00,VWS V14.00,2013-01-01 09:09:00,
2013-01-01 04:14:00,32.6,24.9,29.71,SW,236,2.0,6.0,73,0.00,,OVC060,0.00,VWS V14.00,2013-01-01 09:14:00,
2013-01-01 04:19:00,32.6,24.6,29.71,SW,236,0.0,6.0,72,0.00,,OVC060,0.00,VWS V14.00,2013-01-01 09:19:00,
2013-01-01 04:24:00,32.7,24.7,29.71,WSW,238,2.0,6.0,72,0.00,,OVC060,0.00,VWS V14.00,2013-01-01 09:24:00,
2013-01-01 04:29:00,32.8,25.1,29.72,WSW,245,3.0,8.0,73,0.00,,OVC060,0.00,VWS V14.00,2013-01-01 09:29:00,
2013-01-01 04:34:00,33.0,25.0,29.72,WSW,249,2.0,7.0,72,0.00,,OVC060,0.00,VWS V14.00,2013-01-01 09:34:00,
2013-01-01 04:39:00,33.0,25.0,29.72,SW,227,2.0,7.0,72,0.00,,OVC060,0.00,VWS V14.00,2013-01-01 09:39:00,
2013-01-01 04:44:00,33.0,25.0,29.72,West,274,2.0,7.0,72,0.00,,OVC060,0.00,VWS V14.00,2013-01-01 09:44:00,
2013-01-01 04:49:00,33.1,25.1,29.72,WSW,249,1.0,7.0,72,0.00,,OVC060,0.00,VWS V14.00,2013-01-01 09:49:00,
2013-01-01 04:54:00,33.1,25.1,29.72,WSW,242,2.0,7.0,72,0.00,,OVC060,0.00,VWS V14.00,2013-01-01 09:54:00,
2013-01-01 04:59:00,33.1,25.1,29.72,WSW,239,2.0,7.0,72,0.00,,OVC060,0.00,VWS V14.00,2013-01-01 09:59:00,
2013-01-01 05:04:00,33.3,25.3,29.72,WSW,239,1.0,4.0,72,0.00,,OVC065,0.00,VWS V14.00,2013-01-01 10:04:00,
2013-01-01 05:09:00,33.1,25.4,29.72,SW,231,2.0,6.0,73,0.00,,OVC065,0.00,VWS V14.00,2013-01-01 10:09:00,
2013-01-01 05:14:00,33.3,25.3,29.72,WSW,239,2.0,7.0,72,0.00,,OVC065,0.00,VWS V14.00,2013-01-01 10:14:00,
2013-01-01 05:19:00,33.3,25.3,29.72,SW,236,2.0,7.0,72,0.00,,OVC065,0.00,VWS V14.00,2013-01-01 10:19:00,
2013-01-01 05:24:00,33.3,25.6,29.72,SW,225,3.0,7.0,73,0.00,,OVC065,0.00,VWS V14.00,2013-01-01 10:24:00,
2013-01-01 05:29:00,33.3,25.3,29.72,SW,229,3.0,7.0,72,0.00,,OVC065,0.00,VWS V14.00,2013-01-01 10:29:00,
2013-01-01 05:34:00,33.3,25.6,29.72,SW,226,5.0,8.0,73,0.00,,OVC065,0.00,VWS V14.00,2013-01-01 10:34:00,
2013-01-01 05:39:00,33.3,25.3,29.72,SW,219,1.0,8.0,72,0.00,,OVC065,0.00,VWS V14.00,2013-01-01 10:39:00,
2013-01-01 05:44:00,33.2,25.2,29.72,SSW,206,5.0,8.0,72,0.00,,OVC065,0.00,VWS V14.00,2013-01-01 10:44:00,
2013-01-01 05:49:00,33.1,25.4,29.72,SSW,212,0.0,8.0,73,0.00,,OVC065,0.00,VWS V14.00,2013-01-01 10:49:00,
2013-01-01 05:54:00,33.1,25.4,29.72,WSW,241,1.0,8.0,73,0.00,,OVC065,0.00,VWS V14.00,2013-01-01 10:54:00,
2013-01-01 05:59:00,33.1,25.4,29.72,WSW,241,0.0,8.0,73,0.00,,OVC065,0.00,VWS V14.00,2013-01-01 10:59:00,
2013-01-01 06:04:00,33.0,25.3,29.72,WSW,241,1.0,3.0,73,0.00,,OVC060,0.00,VWS V14.00,2013-01-01 11:04:00,
2013-01-01 06:09:00,32.8,25.4,29.72,WSW,241,4.0,5.0,74,0.00,,OVC060,0.00,VWS V14.00,2013-01-01 11:09:00,
2013-01-01 06:14:00,32.7,25.3,29.73,SW,235,2.0,5.0,74,0.00,,OVC060,0.00,VWS V14.00,2013-01-01 11:14:00,
2013-01-01 06:19:00,32.7,25.0,29.72,WSW,244,2.0,5.0,73,0.00,,OVC060,0.00,VWS V14.00,2013-01-01 11:19:00,
2013-01-01 06:24:00,32.7,25.3,29.73,WSW,244,2.0,5.0,74,0.00,,OVC060,0.00,VWS V14.00,2013-01-01 11:24:00,
2013-01-01 06:29:00,32.7,25.3,29.73,WSW,244,0.0,5.0,74,0.00,,OVC060,0.00,VWS V14.00,2013-01-01 11:29:00,
2013-01-01 06:34:00,32.6,25.2,29.73,WSW,243,3.0,5.0,74,0.00,,OVC060,0.00,VWS V14.00,2013-01-01 11:34:00,
2013-01-01 06:39:00,32.5,25.5,29.73,WSW,243,0.0,5.0,75,0.00,,OVC060,0.00,VWS V14.00,2013-01-01 11:39:00,
2013-01-01 06:44:00,32.5,25.5,29.73,WSW,243,1.0,5.0,75,0.00,,OVC060,0.00,VWS V14.00,2013-01-01 11:44:00,
2013-01-01 06:49:00,32.5,25.5,29.74,WSW,243,2.0,5.0,75,0.00,,OVC060,0.00,VWS V14.00,2013-01-01 11:49:00,
2013-01-01 06:54:00,32.5,25.8,29.74,WSW,243,1.0,5.0,76,0.00,,OVC060,0.00,VWS V14.00,2013-01-01 11:54:00,
2013-01-01 06:59:00,32.3,25.3,29.73,WSW,243,1.0,5.0,75,0.00,,OVC060,0.00,VWS V14.00,2013-01-01 11:59:00,
2013-01-01 07:04:00,32.2,25.2,29.74,WSW,243,2.0,4.0,75,0.00,,OVC060,0.00,VWS V14.00,2013-01-01 12:04:00,
2013-01-01 07:09:00,32.3,25.6,29.73,NW,313,2.0,4.0,76,0.00,,OVC060,0.00,VWS V14.00,2013-01-01 12:09:00,
2013-01-01 07:14:00,32.3,25.6,29.73,NW,313,1.0,4.0,76,0.00,,OVC060,0.00,VWS V14.00,2013-01-01 12:14:00,
2013-01-01 07:19:00,32.2,25.5,29.74,NW,314,1.0,5.0,76,0.00,,OVC060,0.00,VWS V14.00,2013-01-01 12:19:00,
2013-01-01 07:24:00,32.2,25.5,29.73,NW,315,2.0,5.0,76,0.00,,OVC060,0.00,VWS V14.00,2013-01-01 12:24:00,
2013-01-01 07:29:00,32.2,25.5,29.74,NW,315,3.0,5.0,76,0.00,,OVC060,0.00,VWS V14.00,2013-01-01 12:29:00,
2013-01-01 07:34:00,32.2,25.5,29.74,NW,315,1.0,3.0,76,0.00,,OVC060,0.00,VWS V14.00,2013-01-01 12:34:00,
2013-01-01 07:39:00,32.3,25.6,29.74,West,259,1.0,5.0,76,0.00,,OVC060,0.00,VWS V14.00,2013-01-01 12:39:00,
2013-01-01 07:44:00,32.5,25.8,29.74,WNW,287,4.0,6.0,76,0.00,,OVC060,0.00,VWS V14.00,2013-01-01 12:44:00,
2013-01-01 07:49:00,32.6,25.9,29.74,South,188,5.0,7.0,76,0.00,,OVC060,0.00,VWS V14.00,2013-01-01 12:49:00,
2013-01-01 07:54:00,32.7,25.7,29.75,NW,308,2.0,12.0,75,0.00,,OVC060,0.00,VWS V14.00,2013-01-01 12:54:00,
2013-01-01 07:59:00,33.0,25.6,29.74,North,1,2.0,13.0,74,0.00,,OVC060,0.00,VWS V14.00,2013-01-01 12:59:00,
2013-01-01 08:04:00,33.3,25.3,29.74,South,181,5.0,11.0,72,0.00,,OVC055,0.00,VWS V14.00,2013-01-01 13:04:00,
2013-01-01 08:09:00,33.6,24.9,29.75,WNW,288,13.0,19.0,70,0.00,,OVC055,0.00,VWS V14.00,2013-01-01 13:09:00,
2013-01-01 08:14:00,33.7,23.9,29.75,NW,315,2.0,19.0,67,0.00,,OVC055,0.00,VWS V14.00,2013-01-01 13:14:00,
2013-01-01 08:19:00,33.8,22.9,29.75,NNW,335,8.0,19.0,64,0.00,,OVC055,0.00,VWS V14.00,2013-01-01 13:19:00,
2013-01-01 08:24:00,33.7,22.8,29.75,NW,310,4.0,19.0,64,0.00,,OVC055,0.00,VWS V14.00,2013-01-01 13:24:00,
2013-01-01 08:29:00,33.7,22.8,29.75,North,1,2.0,19.0,64,0.00,,OVC055,0.00,VWS V14.00,2013-01-01 13:29:00,
2013-01-01 08:34:00,33.7,22.8,29.76,SW,236,4.0,9.0,64,0.00,,OVC055,0.00,VWS V14.00,2013-01-01 13:34:00,
2013-01-01 08:39:00,33.8,22.9,29.75,SSW,206,2.0,13.0,64,0.00,,OVC055,0.00,VWS V14.00,2013-01-01 13:39:00,
2013-01-01 08:44:00,34.1,23.2,29.76,SSE,149,14.0,14.0,64,0.00,,OVC055,0.00,VWS V14.00,2013-01-01 13:44:00,
2013-01-01 08:49:00,34.3,23.0,29.76,West,273,16.0,21.0,63,0.00,,OVC055,0.00,VWS V14.00,2013-01-01 13:49:00,
2013-01-01 08:54:00,34.0,22.4,29.75,NW,318,5.0,21.0,62,0.00,,OVC055,0.00,VWS V14.00,2013-01-01 13:54:00,
2013-01-01 08:59:00,33.8,21.8,29.76,SSE,167,5.0,21.0,61,0.00,,OVC055,0.00,VWS V14.00,2013-01-01 13:59:00,
2013-01-01 09:04:00,33.5,21.9,29.76,WNW,288,5.0,10.0,62,0.00,,CLR,0.00,VWS V14.00,2013-01-01 14:04:00,
2013-01-01 09:09:00,33.3,21.7,29.76,NNW,341,12.0,13.0,62,0.00,,CLR,0.00,VWS V14.00,2013-01-01 14:09:00,
2013-01-01 09:14:00,33.1,21.5,29.75,West,275,12.0,16.0,62,0.00,,CLR,0.00,VWS V14.00,2013-01-01 14:14:00,
2013-01-01 09:20:00,33.1,21.5,29.76,WNW,290,5.0,16.0,62,0.00,,CLR,0.00,VWS V14.00,2013-01-01 14:20:00,
2013-01-01 09:25:00,33.0,21.4,29.76,NNW,330,6.0,17.0,62,0.00,,CLR,0.00,VWS V14.00,2013-01-01 14:25:00,
2013-01-01 09:30:00,32.7,21.1,29.76,NW,326,8.0,17.0,62,0.00,,CLR,0.00,VWS V14.00,2013-01-01 14:30:00,
2013-01-01 09:35:00,32.7,20.4,29.76,NNW,347,6.0,23.0,60,0.00,,CLR,0.00,VWS V14.00,2013-01-01 14:35:00,
2013-01-01 09:40:00,33.1,21.1,29.77,ESE,118,9.0,23.0,61,0.00,,CLR,0.00,VWS V14.00,2013-01-01 14:40:00,
2013-01-01 09:45:00,33.3,20.9,29.77,NW,307,7.0,23.0,60,0.00,,CLR,0.00,VWS V14.00,2013-01-01 14:45:00,
2013-01-01 09:50:00,33.4,20.6,29.77,SW,231,2.0,23.0,59,0.00,,CLR,0.00,VWS V14.00,2013-01-01 14:50:00,
2013-01-01 09:55:00,33.6,20.8,29.77,NW,312,6.0,23.0,59,0.00,,CLR,0.00,VWS V14.00,2013-01-01 14:55:00,
2013-01-01 10:00:00,33.8,21.0,29.78,NNW,334,1.0,23.0,59,0.00,,CLR,0.00,VWS V14.00,2013-01-01 15:00:00,
2013-01-01 10:05:00,34.0,20.8,29.79,WSW,246,4.0,21.0,58,0.00,,CLR,0.00,VWS V14.00,2013-01-01 15:05:00,
2013-01-01 10:10:00,33.7,20.5,29.79,West,264,1.0,21.0,58,0.00,,CLR,0.00,VWS V14.00,2013-01-01 15:10:00,
2013-01-01 10:15:00,33.3,19.7,29.79,WNW,286,11.0,21.0,57,0.00,,CLR,0.00,VWS V14.00,2013-01-01 15:15:00,
2013-01-01 10:20:00,32.8,19.7,29.80,NNW,331,4.0,21.0,58,0.00,,CLR,0.00,VWS V14.00,2013-01-01 15:20:00,
2013-01-01 10:25:00,32.5,19.4,29.79,NE,38,6.0,22.0,58,0.00,,CLR,0.00,VWS V14.00,2013-01-01 15:25:00,
2013-01-01 10:30:00,32.6,19.5,29.78,NNW,336,4.0,22.0,58,0.00,,CLR,0.00,VWS V14.00,2013-01-01 15:30:00,
2013-01-01 10:35:00,32.7,20.0,29.78,NW,324,5.0,15.0,59,0.00,,CLR,0.00,VWS V14.00,2013-01-01 15:35:00,
2013-01-01 10:40:00,32.6,19.1,29.79,WNW,301,6.0,20.0,57,0.00,,CLR,0.00,VWS V14.00,2013-01-01 15:40:00,
2013-01-01 10:45:00,32.4,19.3,29.78,NW,321,14.0,20.0,58,0.00,,CLR,0.00,VWS V14.00,2013-01-01 15:45:00,
2013-01-01 10:50:00,32.5,19.4,29.77,NNW,345,14.0,20.0,58,0.00,,CLR,0.00,VWS V14.00,2013-01-01 15:50:00,
2013-01-01 10:55:00,32.2,18.7,29.77,West,274,3.0,20.0,57,0.00,,CLR,0.00,VWS V14.00,2013-01-01 15:55:00,
2013-01-01 11:00:00,32.2,18.7,29.77,SSW,200,12.0,20.0,57,0.00,,CLR,0.00,VWS V14.00,2013-01-01 16:00:00,
2013-01-01 11:05:00,32.2,18.3,29.77,WNW,290,7.0,17.0,56,0.00,,CLR,0.00,VWS V14.00,2013-01-01 16:05:00,
2013-01-01 11:10:00,32.0,18.5,29.76,NW,321,7.0,22.0,57,0.00,,CLR,0.00,VWS V14.00,2013-01-01 16:10:00,
2013-01-01 11:14:00,32.2,18.7,29.76,NW,316,2.0,22.0,57,0.00,,CLR,0.00,VWS V14.00,2013-01-01 16:14:00,
2013-01-01 11:19:00,32.4,18.9,29.76,NNW,332,16.0,25.0,57,0.00,,CLR,0.00,VWS V14.00,2013-01-01 16:19:00,
2013-01-01 11:24:00,32.6,19.1,29.77,West,272,3.0,25.0,57,0.00,,CLR,0.00,VWS V14.00,2013-01-01 16:24:00,
2013-01-01 11:29:00,32.8,18.8,29.76,NNW,341,11.0,25.0,56,0.00,,CLR,0.00,VWS V14.00,2013-01-01 16:29:00,
2013-01-01 11:34:00,32.7,18.8,29.77,WSW,249,4.0,16.0,56,0.00,,CLR,0.00,VWS V14.00,2013-01-01 16:34:00,
2013-01-01 11:39:00,32.4,18.5,29.76,NW,316,7.0,16.0,56,0.00,,CLR,0.00,VWS V14.00,2013-01-01 16:39:00,
2013-01-01 11:44:00,32.2,18.3,29.77,WNW,290,3.0,18.0,56,0.00,,CLR,0.00,VWS V14.00,2013-01-01 16:44:00,
2013-01-01 11:49:00,31.9,18.4,29.76,WNW,286,4.0,18.0,57,0.00,,CLR,0.00,VWS V14.00,2013-01-01 16:49:00,
2013-01-01 11:54:00,31.9,18.8,29.76,NNE,26,1.0,18.0,58,0.00,,CLR,0.00,VWS V14.00,2013-01-01 16:54:00,
2013-01-01 11:59:00,32.2,18.7,29.76,West,279,4.0,18.0,57,0.00,,CLR,0.00,VWS V14.00,2013-01-01 16:59:00,
2013-01-01 12:04:00,32.3,18.8,29.75,WNW,297,3.0,13.0,57,0.00,,CLR,0.00,VWS V14.00,2013-01-01 17:04:00,
2013-01-01 12:09:00,32.4,18.5,29.75,NNE,16,13.0,13.0,56,0.00,,CLR,0.00,VWS V14.00,2013-01-01 17:09:00,
2013-01-01 12:14:00,32.3,18.4,29.75,North,358,8.0,16.0,56,0.00,,CLR,0.00,VWS V14.00,2013-01-01 17:14:00,
2013-01-01 12:19:00,32.4,18.5,29.76,NW,306,11.0,19.0,56,0.00,,CLR,0.00,VWS V14.00,2013-01-01 17:19:00,
2013-01-01 12:24:00,32.2,18.3,29.75,East,91,3.0,19.0,56,0.00,,CLR,0.00,VWS V14.00,2013-01-01 17:24:00,
2013-01-01 12:29:00,31.9,17.6,29.75,West,271,2.0,19.0,55,0.00,,CLR,0.00,VWS V14.00,2013-01-01 17:29:00,
2013-01-01 12:34:00,31.7,17.0,29.73,SW,221,9.0,18.0,54,0.00,,CLR,0.00,VWS V14.00,2013-01-01 17:34:00,
2013-01-01 12:39:00,31.6,17.3,29.74,NNW,334,6.0,18.0,55,0.00,,CLR,0.00,VWS V14.00,2013-01-01 17:39:00,
2013-01-01 12:44:00,31.6,17.7,29.73,WNW,285,7.0,22.0,56,0.00,,CLR,0.00,VWS V14.00,2013-01-01 17:44:00,
2013-01-01 12:49:00,31.6,17.7,29.74,NNW,344,9.0,22.0,56,0.00,,CLR,0.00,VWS V14.00,2013-01-01 17:49:00,
2013-01-01 12:54:00,31.7,17.4,29.75,NW,308,10.0,22.0,55,0.00,,CLR,0.00,VWS V14.00,2013-01-01 17:54:00,
2013-01-01 12:59:00,31.9,17.6,29.75,NW,316,10.0,22.0,55,0.00,,CLR,0.00,VWS V14.00,2013-01-01 17:59:00,
2013-01-01 13:04:00,32.0,18.1,29.74,West,268,3.0,18.0,56,0.00,,SCT200,0.00,VWS V14.00,2013-01-01 18:04:00,
2013-01-01 13:09:00,32.0,17.2,29.74,WSW,248,6.0,19.0,54,0.00,,SCT200,0.00,VWS V14.00,2013-01-01 18:09:00,
2013-01-01 13:14:00,32.0,17.7,29.75,NW,310,5.0,19.0,55,0.00,,SCT200,0.00,VWS V14.00,2013-01-01 18:14:00,
2013-01-01 13:19:00,32.0,17.2,29.74,WNW,289,4.0,19.0,54,0.00,,SCT200,0.00,VWS V14.00,2013-01-01 18:19:00,
2013-01-01 13:24:00,31.9,17.6,29.73,NW,325,4.0,23.0,55,0.00,,SCT200,0.00,VWS V14.00,2013-01-01 18:24:00,
2013-01-01 13:29:00,32.0,17.2,29.73,NW,311,8.0,23.0,54,0.00,,SCT200,0.00,VWS V14.00,2013-01-01 18:29:00,
2013-01-01 13:34:00,31.9,17.2,29.74,NW,323,3.0,22.0,54,0.00,,SCT200,0.00,VWS V14.00,2013-01-01 18:34:00,
2013-01-01 13:39:00,32.0,17.2,29.74,NNW,337,1.0,22.0,54,0.00,,SCT200,0.00,VWS V14.00,2013-01-01 18:39:00,
2013-01-01 13:44:00,31.7,17.0,29.74,WNW,295,3.0,22.0,54,0.00,,SCT200,0.00,VWS V14.00,2013-01-01 18:44:00,
2013-01-01 13:49:00,31.3,17.0,29.74,NW,325,13.0,23.0,55,0.00,,SCT200,0.00,VWS V14.00,2013-01-01 18:49:00,
2013-01-01 13:54:00,30.8,17.0,29.75,West,280,10.0,23.0,56,0.00,,SCT200,0.00,VWS V14.00,2013-01-01 18:54:00,
2013-01-01 13:59:00,30.6,16.8,29.74,NE,49,3.0,23.0,56,0.00,,SCT200,0.00,VWS V14.00,2013-01-01 18:59:00,
2013-01-01 14:04:00,30.3,16.9,29.75,NW,323,14.0,19.0,57,0.00,,SCT200,0.00,VWS V14.00,2013-01-01 19:04:00,
2013-01-01 14:09:00,30.2,16.4,29.75,WNW,290,13.0,19.0,56,0.00,,SCT200,0.00,VWS V14.00,2013-01-01 19:09:00,
2013-01-01 14:14:00,30.3,16.5,29.75,SSW,212,4.0,19.0,56,0.00,,SCT200,0.00,VWS V14.00,2013-01-01 19:14:00,
2013-01-01 14:19:00,30.2,16.8,29.75,NW,321,8.0,21.0,57,0.00,,SCT200,0.00,VWS V14.00,2013-01-01 19:19:00,
2013-01-01 14:24:00,30.4,16.6,29.75,NW,326,2.0,21.0,56,0.00,,SCT200,0.00,VWS V14.00,2013-01-01 19:24:00,
2013-01-01 14:29:00,30.4,17.0,29.75,NW,326,5.0,21.0,57,0.00,,SCT200,0.00,VWS V14.00,2013-01-01 19:29:00,
2013-01-01 14:34:00,30.4,17.0,29.75,NNW,343,4.0,12.0,57,0.00,,SCT200,0.00,VWS V14.00,2013-01-01 19:34:00,
2013-01-01 14:39:00,30.3,16.9,29.74,North,359,3.0,12.0,57,0.00,,SCT200,0.00,VWS V14.00,2013-01-01 19:39:00,
2013-01-01 14:44:00,30.1,16.7,29.74,NNW,348,3.0,12.0,57,0.00,,SCT200,0.00,VWS V14.00,2013-01-01 19:44:00,
2013-01-01 14:49:00,30.0,16.6,29.75,NNW,346,2.0,19.0,57,0.00,,SCT200,0.00,VWS V14.00,2013-01-01 19:49:00,
2013-01-01 14:54:00,29.6,16.6,29.75,North,354,2.0,19.0,58,0.00,,SCT200,0.00,VWS V14.00,2013-01-01 19:54:00,
2013-01-01 14:59:00,29.5,16.6,29.75,NNW,332,1.0,19.0,58,0.00,,SCT200,0.00,VWS V14.00,2013-01-01 19:59:00,
2013-01-01 15:04:00,29.3,16.4,29.76,SW,234,9.0,11.0,58,0.00,,SCT200,0.00,VWS V14.00,2013-01-01 20:04:00,
2013-01-01 15:09:00,29.0,16.1,29.76,NW,321,2.0,11.0,58,0.00,,SCT200,0.00,VWS V14.00,2013-01-01 20:09:00,
2013-01-01 15:14:00,28.9,16.0,29.76,WSW,238,2.0,11.0,58,0.00,,SCT200,0.00,VWS V14.00,2013-01-01 20:14:00,
2013-01-01 15:19:00,28.8,15.5,29.76,North,350,5.0,13.0,57,0.00,,SCT200,0.00,VWS V14.00,2013-01-01 20:19:00,
2013-01-01 15:24:00,28.6,14.9,29.76,WNW,297,11.0,13.0,56,0.00,,SCT200,0.00,VWS V14.00,2013-01-01 20:24:00,
2013-01-01 15:29:00,28.5,15.2,29.76,NW,323,3.0,13.0,57,0.00,,SCT200,0.00,VWS V14.00,2013-01-01 20:29:00,
2013-01-01 15:34:00,28.3,15.0,29.76,NW,316,5.0,18.0,57,0.00,,SCT200,0.00,VWS V14.00,2013-01-01 20:34:00,
2013-01-01 15:39:00,28.2,14.9,29.75,NNW,348,1.0,18.0,57,0.00,,SCT200,0.00,VWS V14.00,2013-01-01 20:39:00,
2013-01-01 15:44:00,28.2,14.5,29.76,WNW,287,5.0,18.0,56,0.00,,SCT200,0.00,VWS V14.00,2013-01-01 20:44:00,
2013-01-01 15:49:00,28.2,14.9,29.77,WNW,295,3.0,18.0,57,0.00,,SCT200,0.00,VWS V14.00,2013-01-01 20:49:00,
2013-01-01 15:54:00,28.0,14.8,29.77,NW,318,2.0,18.0,57,0.00,,SCT200,0.00,VWS V14.00,2013-01-01 20:54:00,
2013-01-01 15:59:00,27.9,15.1,29.77,NW,316,7.0,18.0,58,0.00,,SCT200,0.00,VWS V14.00,2013-01-01 20:59:00,
2013-01-01 16:04:00,27.9,15.1,29.77,NNW,342,3.0,9.0,58,0.00,,CLR,0.00,VWS V14.00,2013-01-01 21:04:00,
2013-01-01 16:09:00,27.7,14.9,29.77,West,281,1.0,9.0,58,0.00,,CLR,0.00,VWS V14.00,2013-01-01 21:09:00,
2013-01-01 16:14:00,27.7,14.9,29.77,North,355,3.0,10.0,58,0.00,,CLR,0.00,VWS V14.00,2013-01-01 21:14:00,
2013-01-01 16:19:00,27.6,14.8,29.76,WNW,288,3.0,12.0,58,0.00,,CLR,0.00,VWS V14.00,2013-01-01 21:19:00,
2013-01-01 16:24:00,27.6,14.8,29.77,NNW,333,3.0,12.0,58,0.00,,CLR,0.00,VWS V14.00,2013-01-01 21:24:00,
2013-01-01 16:29:00,27.6,14.8,29.78,NW,316,2.0,12.0,58,0.00,,CLR,0.00,VWS V14.00,2013-01-01 21:29:00,
2013-01-01 16:34:00,27.4,14.6,29.78,NNW,344,6.0,9.0,58,0.00,,CLR,0.00,VWS V14.00,2013-01-01 21:34:00,
2013-01-01 16:39:00,27.4,15.0,29.78,North,354,1.0,13.0,59,0.00,,CLR,0.00,VWS V14.00,2013-01-01 21:39:00,
2013-01-01 16:44:00,27.4,15.0,29.78,WNW,293,2.0,13.0,59,0.00,,CLR,0.00,VWS V14.00,2013-01-01 21:44:00,
2013-01-01 16:49:00,27.3,14.9,29.79,NNW,344,2.0,13.0,59,0.00,,CLR,0.00,VWS V14.00,2013-01-01 21:49:00,
2013-01-01 16:54:00,27.3,14.5,29.78,NNW,335,3.0,13.0,58,0.00,,CLR,0.00,VWS V14.00,2013-01-01 21:54:00,
2013-01-01 16:59:00,27.1,14.7,29.79,North,354,9.0,15.0,59,0.00,,CLR,0.00,VWS V14.00,2013-01-01 21:59:00,
2013-01-01 17:04:00,27.1,14.7,29.79,SW,228,1.0,9.0,59,0.00,,CLR,0.00,VWS V14.00,2013-01-01 22:04:00,
2013-01-01 17:09:00,26.8,14.4,29.80,WNW,297,4.0,11.0,59,0.00,,CLR,0.00,VWS V14.00,2013-01-01 22:09:00,
2013-01-01 17:14:00,26.8,14.4,29.81,NW,318,6.0,11.0,59,0.00,,CLR,0.00,VWS V14.00,2013-01-01 22:14:00,
2013-01-01 17:19:00,26.8,14.4,29.80,WSW,250,3.0,14.0,59,0.00,,CLR,0.00,VWS V14.00,2013-01-01 22:19:00,
2013-01-01 17:24:00,26.8,14.8,29.81,NW,319,2.0,14.0,60,0.00,,CLR,0.00,VWS V14.00,2013-01-01 22:24:00,
2013-01-01 17:29:00,26.7,14.3,29.80,NW,321,3.0,14.0,59,0.00,,CLR,0.00,VWS V14.00,2013-01-01 22:29:00,
2013-01-01 17:34:00,26.5,14.5,29.80,North,351,3.0,7.0,60,0.00,,CLR,0.00,VWS V14.00,2013-01-01 22:34:00,
2013-01-01 17:39:00,26.6,14.2,29.81,North,359,4.0,10.0,59,0.00,,CLR,0.00,VWS V14.00,2013-01-01 22:39:00,
2013-01-01 17:44:00,26.6,14.2,29.81,NW,326,1.0,10.0,59,0.00,,CLR,0.00,VWS V14.00,2013-01-01 22:44:00,
2013-01-01 17:49:00,26.4,14.0,29.81,West,266,1.0,13.0,59,0.00,,CLR,0.00,VWS V14.00,2013-01-01 22:49:00,
2013-01-01 17:54:00,26.3,13.9,29.81,North,349,3.0,13.0,59,0.00,,CLR,0.00,VWS V14.00,2013-01-01 22:54:00,
2013-01-01 17:59:00,26.2,14.2,29.82,NNW,328,5.0,13.0,60,0.00,,CLR,0.00,VWS V14.00,2013-01-01 22:59:00,
2013-01-01 18:04:00,26.1,14.1,29.82,NNW,343,2.0,10.0,60,0.00,,CLR,0.00,VWS V14.00,2013-01-01 23:04:00,
2013-01-01 18:09:00,26.1,14.5,29.82,NW,324,4.0,10.0,61,0.00,,CLR,0.00,VWS V14.00,2013-01-01 23:09:00,
2013-01-01 18:14:00,25.8,14.2,29.83,West,273,2.0,11.0,61,0.00,,CLR,0.00,VWS V14.00,2013-01-01 23:14:00,
2013-01-01 18:19:00,25.7,14.1,29.83,NNW,340,1.0,11.0,61,0.00,,CLR,0.00,VWS V14.00,2013-01-01 23:19:00,
2013-01-01 18:24:00,25.6,14.0,29.83,West,262,5.0,11.0,61,0.00,,CLR,0.00,VWS V14.00,2013-01-01 23:24:00,
2013-01-01 18:29:00,25.7,13.4,29.84,NNW,347,4.0,16.0,59,0.00,,CLR,0.00,VWS V14.00,2013-01-01 23:29:00,
2013-01-01 18:34:00,25.5,13.6,29.85,SSW,204,7.0,14.0,60,0.00,,CLR,0.00,VWS V14.00,2013-01-01 23:34:00,
2013-01-01 18:39:00,25.3,13.4,29.85,NNW,333,2.0,14.0,60,0.00,,CLR,0.00,VWS V14.00,2013-01-01 23:39:00,
2013-01-01 18:44:00,25.3,13.0,29.84,North,0,3.0,14.0,59,0.00,,CLR,0.00,VWS V14.00,2013-01-01 23:44:00,
2013-01-01 18:49:00,25.2,13.3,29.85,North,357,2.0,14.0,60,0.00,,CLR,0.00,VWS V14.00,2013-01-01 23:49:00,
2013-01-01 18:54:00,24.9,13.0,29.85,NW,320,5.0,14.0,60,0.00,,CLR,0.00,VWS V14.00,2013-01-01 23:54:00,
2013-01-01 18:59:00,24.8,12.9,29.85,NW,305,1.0,14.0,60,0.00,,CLR,0.00,VWS V14.00,2013-01-01 23:59:00,
2013-01-01 19:04:00,24.8,12.9,29.86,NNW,347,4.0,9.0,60,0.00,,CLR,0.00,VWS V14.00,2013-01-02 00:04:00,
2013-01-01 19:09:00,24.6,13.1,29.86,North,354,3.0,13.0,61,0.00,,CLR,0.00,VWS V14.00,2013-01-02 00:09:00,
2013-01-01 19:14:00,24.6,13.4,29.86,North,0,1.0,13.0,62,0.00,,CLR,0.00,VWS V14.00,2013-01-02 00:14:00,
2013-01-01 19:19:00,24.5,13.4,29.86,NNW,327,3.0,13.0,62,0.00,,CLR,0.00,VWS V14.00,2013-01-02 00:19:00,
2013-01-01 19:24:00,24.3,13.2,29.85,North,0,1.0,13.0,62,0.00,,CLR,0.00,VWS V14.00,2013-01-02 00:24:00,
2013-01-01 19:29:00,24.2,13.4,29.87,NW,313,3.0,13.0,63,0.00,,CLR,0.00,VWS V14.00,2013-01-02 00:29:00,
2013-01-01 19:34:00,24.0,13.2,29.86,NW,313,3.0,10.0,63,0.00,,CLR,0.00,VWS V14.00,2013-01-02 00:34:00,
2013-01-01 19:39:00,24.0,13.6,29.86,NNW,339,4.0,10.0,64,0.00,,CLR,0.00,VWS V14.00,2013-01-02 00:39:00,
2013-01-01 19:44:00,23.7,13.7,29.87,NNW,332,0.0,10.0,65,0.00,,CLR,0.00,VWS V14.00,2013-01-02 00:44:00,
2013-01-01 19:49:00,23.7,13.7,29.86,NNW,337,4.0,10.0,65,0.00,,CLR,0.00,VWS V14.00,2013-01-02 00:49:00,
2013-01-01 19:54:00,23.6,13.6,29.87,North,2,1.0,10.0,65,0.00,,CLR,0.00,VWS V14.00,2013-01-02 00:54:00,
2013-01-01 19:59:00,23.5,13.5,29.87,West,271,4.0,10.0,65,0.00,,CLR,0.00,VWS V14.00,2013-01-02 00:59:00,
2013-01-01 20:04:00,23.4,13.4,29.87,NW,322,1.0,7.0,65,0.00,,CLR,0.00,VWS V14.00,2013-01-02 01:04:00,
2013-01-01 20:09:00,23.4,13.0,29.86,NNW,330,5.0,12.0,64,0.00,,CLR,0.00,VWS V14.00,2013-01-02 01:09:00,
2013-01-01 20:14:00,23.4,13.0,29.87,NNW,334,3.0,12.0,64,0.00,,CLR,0.00,VWS V14.00,2013-01-02 01:14:00,
2013-01-01 20:19:00,23.3,12.9,29.87,NNW,348,7.0,12.0,64,0.00,,CLR,0.00,VWS V14.00,2013-01-02 01:19:00,
2013-01-01 20:24:00,23.1,12.4,29.87,SW,226,4.0,12.0,63,0.00,,CLR,0.00,VWS V14.00,2013-01-02 01:24:00,
2013-01-01 20:29:00,23.1,12.0,29.87,NNW,332,6.0,13.0,62,0.00,,CLR,0.00,VWS V14.00,2013-01-02 01:29:00,
2013-01-01 20:34:00,23.0,11.9,29.86,NNW,334,7.0,8.0,62,0.00,,CLR,0.00,VWS V14.00,2013-01-02 01:34:00,
2013-01-01 20:39:00,23.0,11.9,29.86,North,358,6.0,8.0,62,0.00,,CLR,0.00,VWS V14.00,2013-01-02 01:39:00,
2013-01-01 20:44:00,22.8,11.4,29.88,NNW,343,2.0,8.0,61,0.00,,CLR,0.00,VWS V14.00,2013-01-02 01:44:00,
2013-01-01 20:49:00,22.7,11.6,29.87,WNW,296,2.0,8.0,62,0.00,,CLR,0.00,VWS V14.00,2013-01-02 01:49:00,
2013-01-01 20:54:00,22.5,11.5,29.88,NW,326,3.0,8.0,62,0.00,,CLR,0.00,VWS V14.00,2013-01-02 01:54:00,
2013-01-01 20:59:00,22.5,11.5,29.88,NNW,330,4.0,11.0,62,0.00,,CLR,0.00,VWS V14.00,2013-01-02 01:59:00,
2013-01-01 21:04:00,22.2,11.2,29.88,North,351,11.0,11.0,62,0.00,,CLR,0.00,VWS V14.00,2013-01-02 02:04:00,
2013-01-01 21:09:00,22.2,11.2,29.88,North,0,3.0,11.0,62,0.00,,CLR,0.00,VWS V14.00,2013-01-02 02:09:00,
2013-01-01 21:14:00,21.9,10.9,29.87,NNW,341,1.0,11.0,62,0.00,,CLR,0.00,VWS V14.00,2013-01-02 02:14:00,
2013-01-01 21:19:00,21.8,10.8,29.88,NW,320,3.0,11.0,62,0.00,,CLR,0.00,VWS V14.00,2013-01-02 02:19:00,
2013-01-01 21:24:00,21.6,10.6,29.87,WNW,289,1.0,11.0,62,0.00,,CLR,0.00,VWS V14.00,2013-01-02 02:24:00,
2013-01-01 21:29:00,21.6,10.2,29.87,NNW,333,4.0,11.0,61,0.00,,CLR,0.00,VWS V14.00,2013-01-02 02:29:00,
2013-01-01 21:34:00,21.6,9.9,29.88,NW,314,3.0,9.0,60,0.00,,CLR,0.00,VWS V14.00,2013-01-02 02:34:00,
2013-01-01 21:39:00,21.6,9.5,29.87,WNW,300,4.0,13.0,59,0.00,,CLR,0.00,VWS V14.00,2013-01-02 02:39:00,
2013-01-01 21:44:00,21.6,9.1,29.87,ENE,63,12.0,14.0,58,0.00,,CLR,0.00,VWS V14.00,2013-01-02 02:44:00,
2013-01-01 21:49:00,21.5,9.0,29.88,NNW,328,8.0,14.0,58,0.00,,CLR,0.00,VWS V14.00,2013-01-02 02:49:00,
2013-01-01 21:54:00,21.3,8.8,29.88,WSW,245,0.0,14.0,58,0.00,,CLR,0.00,VWS V14.00,2013-01-02 02:54:00,
2013-01-01 21:59:00,21.2,8.7,29.89,NNW,337,6.0,14.0,58,0.00,,CLR,0.00,VWS V14.00,2013-01-02 02:59:00,
2013-01-01 22:04:00,21.0,8.6,29.89,NW,318,0.0,8.0,58,0.00,,CLR,0.00,VWS V14.00,2013-01-02 03:04:00,
2013-01-01 22:09:00,21.0,8.2,29.88,NW,318,0.0,13.0,57,0.00,,CLR,0.00,VWS V14.00,2013-01-02 03:09:00,
2013-01-01 22:14:00,20.8,8.0,29.89,NW,319,7.0,15.0,57,0.00,,CLR,0.00,VWS V14.00,2013-01-02 03:14:00,
2013-01-01 22:19:00,20.7,7.9,29.88,NW,316,0.0,15.0,57,0.00,,CLR,0.00,VWS V14.00,2013-01-02 03:19:00,
2013-01-01 22:24:00,20.6,7.8,29.88,West,274,2.0,15.0,57,0.00,,CLR,0.00,VWS V14.00,2013-01-02 03:24:00,
2013-01-01 22:29:00,20.4,7.6,29.88,North,352,2.0,15.0,57,0.00,,CLR,0.00,VWS V14.00,2013-01-02 03:29:00,
2013-01-01 22:34:00,20.4,7.6,29.89,North,353,0.0,10.0,57,0.00,,CLR,0.00,VWS V14.00,2013-01-02 03:34:00,
2013-01-01 22:39:00,20.1,7.3,29.90,NNE,25,0.0,10.0,57,0.00,,CLR,0.00,VWS V14.00,2013-01-02 03:39:00,
2013-01-01 22:44:00,20.0,7.2,29.90,West,268,0.0,10.0,57,0.00,,CLR,0.00,VWS V14.00,2013-01-02 03:44:00,
2013-01-01 22:49:00,19.8,7.0,29.91,NNW,340,0.0,10.0,57,0.00,,CLR,0.00,VWS V14.00,2013-01-02 03:49:00,
2013-01-01 22:54:00,19.7,6.9,29.91,NNW,340,0.0,10.0,57,0.00,,CLR,0.00,VWS V14.00,2013-01-02 03:54:00,
2013-01-01 22:59:00,19.3,6.9,29.90,NW,307,0.0,10.0,58,0.00,,CLR,0.00,VWS V14.00,2013-01-02 03:59:00,
2013-01-01 23:04:00,19.2,7.2,29.90,NW,321,4.0,6.0,59,0.00,,CLR,0.00,VWS V14.00,2013-01-02 04:04:00,
2013-01-01 23:09:00,19.1,6.8,29.91,WNW,288,0.0,7.0,58,0.00,,CLR,0.00,VWS V14.00,2013-01-02 04:09:00,
2013-01-01 23:14:00,19.1,6.8,29.91,NNW,338,2.0,8.0,58,0.00,,CLR,0.00,VWS V14.00,2013-01-02 04:14:00,
2013-01-01 23:19:00,18.9,6.6,29.91,NNW,348,2.0,9.0,58,0.00,,CLR,0.00,VWS V14.00,2013-01-02 04:19:00,
2013-01-01 23:24:00,18.7,6.4,29.90,ENE,62,2.0,9.0,58,0.00,,CLR,0.00,VWS V14.00,2013-01-02 04:24:00,
2013-01-01 23:29:00,18.6,6.7,29.90,North,0,0.0,9.0,59,0.00,,CLR,0.00,VWS V14.00,2013-01-02 04:29:00,
2013-01-01 23:34:00,18.5,6.6,29.90,North,0,0.0,2.0,59,0.00,,CLR,0.00,VWS V14.00,2013-01-02 04:34:00,
2013-01-01 23:39:00,18.3,6.4,29.90,North,0,0.0,3.0,59,0.00,,CLR,0.00,VWS V14.00,2013-01-02 04:39:00,
2013-01-01 23:44:00,18.1,6.2,29.90,North,0,2.0,3.0,59,0.00,,CLR,0.00,VWS V14.00,2013-01-02 04:44:00,
2013-01-01 23:49:00,17.8,6.3,29.91,North,0,0.0,3.0,60,0.00,,CLR,0.00,VWS V14.00,2013-01-02 04:49:00,
2013-01-01 23:54:00,17.6,6.1,29.90,North,0,0.0,3.0,60,0.00,,CLR,0.00,VWS V14.00,2013-01-02 04:54:00,
2013-01-01 23:59:00,17.3,6.5,29.91,North,0,0.0,3.0,62,0.00,,CLR,0.00,VWS V14.00,2013-01-02 04:59:00,